Flag for Portugal Weather past 2 weeks in Vila Nova de Gaia, Portugal

Now
64 °F

Clear.


Feels Like: 64 °F
Forecast: 58 / 73 °F
Wind: 2 mph from North

Location: Porto / Pedras Rubras

Current Time: Sep 24, 2014 at 12:21:40 AM

Latest Report: Sep 23, 2014 at 11:30 PM


Visibility: 10 mi

Pressure: 29.98 "Hg

Humidity: 88%

Dew point: 61 °F

Location of Vila Nova de GaiaLocation

Historic Weather in Vila Nova de Gaia — Graph

°F

Vila Nova de Gaia temperature yesterday

Maximum temperature yesterday: 73 °F (at 1:30 PM)
Minimum temperature yesterday: 61 °F (at 6:00 AM)
Average temperature yesterday: 66 °F

Past Weeks' High & Low Weather Summary

 TemperatureHumidityPressure
High81 °F (Sep 11, 2:30 PM)100% (Sep 8, 11:30 PM)30.07 "Hg (Sep 8, 11:30 PM)
Low59 °F (Sep 9, 5:00 AM)42% (Sep 21, 2:00 PM)29.50 "Hg (Sep 16, 11:00 PM)
Average68 °F84%29.87 "Hg
* Reported Sep 8 11:00 PM — Sep 23 11:00 PM, Vila Nova de Gaia, Weather by CustomWeather, © 2014

Note: Actual official high and low records may vary slightly from our data, if they occured in-between our weather recording intervals... More about our weather records

Advertising

Vila Nova de Gaia weather history for previous 24 hours

 ConditionsComfort  
Time TempWeatherWind HumidityBarometerVisibility
11:00 PM
Sep 23
64 °FClear.2 mph88%29.98 "Hg10 mi
10:30 PM64 °FClear.3 mph88%29.98 "Hg10 mi
10:00 PM64 °FClear.2 mph88%29.98 "Hg10 mi
9:30 PM64 °FClear.2 mph88%29.98 "Hg10 mi
9:00 PM66 °FClear.2 mph83%29.95 "Hg10 mi
8:30 PM66 °FClear.3 mph83%29.95 "Hg10 mi
8:00 PM66 °FPassing clouds.3 mph83%29.95 "HgN/A
7:30 PM68 °FPassing clouds.8 mph73%29.95 "HgN/A
7:00 PM68 °FPassing clouds.9 mph73%29.95 "HgN/A
6:30 PM70 °FPassing clouds.10 mph69%29.95 "HgN/A
6:00 PM70 °FScattered clouds.9 mph69%29.95 "HgN/A
5:30 PM72 °FPassing clouds.10 mph65%29.95 "HgN/A
5:00 PM73 °FPassing clouds.13 mph61%29.95 "HgN/A
4:30 PM72 °FPassing clouds.13 mph65%29.95 "HgN/A
4:00 PM72 °FPassing clouds.12 mph69%29.95 "HgN/A
3:30 PM72 °FPassing clouds.10 mph69%29.95 "HgN/A
3:00 PM72 °FPassing clouds.10 mph69%29.95 "HgN/A
2:30 PM72 °FScattered clouds.9 mph69%29.95 "HgN/A
2:00 PM73 °FPassing clouds.7 mph65%29.95 "HgN/A
1:30 PM73 °FPassing clouds.5 mph61%29.98 "HgN/A
1:00 PM72 °FScattered clouds.6 mph65%29.98 "HgN/A
12:30 PM72 °FPassing clouds.6 mph65%29.98 "HgN/A
12:00 PM70 °FPassing clouds.6 mph69%29.98 "HgN/A
11:00 AM66 °FPassing clouds.8 mph78%29.98 "HgN/A
10:30 AM66 °FSunny.6 mph83%29.98 "Hg10 mi
10:00 AM66 °FSunny.5 mph88%29.98 "Hg10 mi
9:30 AM64 °FPassing clouds.3 mph94%29.98 "Hg6 mi
9:00 AM63 °FScattered clouds.1 mph94%29.95 "Hg5 mi
8:30 AM61 °FFog.2 mph94%29.95 "Hg2 mi
8:00 AM61 °FFog.1 mph94%29.95 "Hg3 mi
7:30 AM61 °FFog.No wind100%29.95 "Hg2 mi
7:00 AM61 °FPassing clouds.2 mph94%29.95 "Hg4 mi
6:30 AM61 °FPassing clouds.5 mph100%29.95 "Hg4 mi
6:00 AM61 °FPassing clouds.6 mph100%29.92 "Hg5 mi
5:30 AM63 °FPassing clouds.3 mph94%29.92 "Hg4 mi
5:00 AM63 °FPassing clouds.2 mph94%29.92 "Hg5 mi
4:30 AM63 °FPassing clouds.5 mph100%29.92 "Hg5 mi
4:00 AM63 °FPartly cloudy.5 mph100%29.92 "Hg4 mi
3:30 AM63 °FPartly cloudy.No wind100%29.95 "Hg5 mi
3:00 AM64 °FPartly cloudy.2 mph94%29.95 "Hg5 mi
2:30 AM64 °FPartly cloudy.5 mph94%29.95 "Hg6 mi
2:00 AM63 °FPassing clouds.6 mph94%29.95 "Hg5 mi
1:30 AM63 °FPassing clouds.6 mph94%29.95 "Hg4 mi
1:00 AM64 °FPassing clouds.3 mph94%29.95 "Hg5 mi
12:30 AM64 °FPartly cloudy.6 mph94%29.95 "HgN/A
12:00 AM64 °FSprinkles. Partly cloudy.6 mph94%29.95 "HgN/A
Weather by CustomWeather, © 2014

See weather overviewHow to use our weather pages